| time (UTC) | temp C | wind direction | speed KPH | gust KPH | rain 1hr cm | rain 24hr cm | rain mn cm | humidity % | barometer mb |
| 20260506151556 | 25 | 0 | 0.0 | 0.0 | 0.00 | 0.00 | 0.00 | 87 | 1011.5 |
| 20260506150056 | 25 | 0 | 0.0 | 3.2 | 0.00 | 0.00 | 0.00 | 86 | 1011.5 |
| 20260506144554 | 25 | 0 | 0.0 | 3.2 | 0.00 | 0.00 | 0.00 | 86 | 1010.9 |
| 20260506143052 | 25 | 112 | 0.0 | 4.8 | 0.00 | 0.00 | 0.00 | 86 | 1010.7 |
| 20260506141555 | 25 | 118 | 1.6 | 4.8 | 0.00 | 0.00 | 0.00 | 86 | 1010.2 |
| 20260506140054 | 25 | 0 | 0.0 | 1.6 | 0.00 | 0.00 | 0.00 | 87 | 1010.8 |
| 20260506134620 | 24 | 117 | 0.0 | 3.2 | 0.00 | 0.00 | 0.00 | 88 | 1010.2 |
| 20260506133051 | 23 | 0 | 0.0 | 4.8 | 0.00 | 0.00 | 0.00 | 89 | 1010.1 |
| 20260506131607 | 23 | 135 | 0.0 | 4.8 | 0.00 | 0.00 | 0.00 | 89 | 1010.1 |
| 20260506130055 | 23 | 0 | 0.0 | 4.8 | 0.00 | 0.00 | 0.00 | 89 | 1009.9 |
| 20260506124554 | 23 | 0 | 0.0 | 1.6 | 0.00 | 0.00 | 0.00 | 89 | 1009.8 |
| 20260506123054 | 23 | 0 | 0.0 | 3.2 | 0.00 | 0.00 | 0.00 | 89 | 1009.8 |
| 20260506121604 | 23 | 0 | 0.0 | 3.2 | 0.00 | 0.00 | 0.00 | 89 | 1009.9 |
| 20260506114556 | 23 | 0 | 0.0 | 4.8 | 0.00 | 0.00 | 0.00 | 88 | 1009.6 |
| 20260506113054 | 23 | 195 | 0.0 | 3.2 | 0.00 | 0.00 | 0.00 | 88 | 1009.7 |
| 20260506111608 | 23 | 0 | 0.0 | 1.6 | 0.00 | 0.00 | 0.00 | 88 | 1009.7 |
| 20260506110054 | 24 | 0 | 0.0 | 3.2 | 0.00 | 0.00 | 0.00 | 88 | 1009.6 |
| 20260506104553 | 24 | 0 | 0.0 | 6.4 | 0.00 | 0.00 | 0.00 | 88 | 1009.5 |
| 20260506103055 | 24 | 143 | 0.0 | 3.2 | 0.00 | 0.00 | 0.00 | 88 | 1009.3 |
| 20260506101549 | 24 | 205 | 0.0 | 6.4 | 0.00 | 0.00 | 0.00 | 88 | 1009.0 |
| 20260506100052 | 23 | 160 | 1.6 | 9.7 | 0.00 | 0.00 | 0.00 | 89 | 1009.0 |
| 20260506094551 | 23 | 195 | 3.2 | 8.0 | 0.00 | 0.00 | 0.00 | 89 | 1008.6 |
| 20260506093058 | 23 | 186 | 3.2 | 9.7 | 0.00 | 0.00 | 0.00 | 89 | 1008.5 |
| 20260506091553 | 23 | 207 | 1.6 | 14.5 | 0.00 | 0.00 | 0.00 | 89 | 1008.4 |
| 20260506090053 | 23 | 69 | 1.6 | 14.5 | 0.00 | 0.00 | 0.00 | 89 | 1008.2 |
| 20260506084601 | 23 | 143 | 3.2 | 6.4 | 0.00 | 0.00 | 0.00 | 89 | 1008.4 |
| 20260506083112 | 23 | 150 | 3.2 | 16.1 | 0.00 | 0.00 | 0.00 | 88 | 1008.3 |
| 20260506081553 | 23 | 122 | 3.2 | 9.7 | 0.00 | 0.00 | 0.00 | 88 | 1008.3 |
| 20260506073059 | 24 | 130 | 3.2 | 14.5 | 0.00 | 0.00 | 0.00 | 88 | 1008.7 |
| 20260506071557 | 24 | 141 | 3.2 | 9.7 | 0.00 | 0.00 | 0.00 | 88 | 1008.9 |
| 20260506070119 | 24 | 221 | 4.8 | 14.5 | 0.00 | 0.00 | 0.00 | 87 | 1008.9 |
| 20260506061553 | 24 | 202 | 3.2 | 16.1 | 0.00 | 0.00 | 0.00 | 87 | 1008.9 |
| 20260506044551 | 25 | 137 | 3.2 | 11.3 | 0.00 | 0.00 | 0.00 | 87 | 1009.0 |
| 20260506043051 | 25 | 146 | 3.2 | 12.9 | 0.00 | 0.00 | 0.00 | 86 | 1009.1 |
| 20260506041554 | 25 | 139 | 1.6 | 12.9 | 0.00 | 0.00 | 0.00 | 86 | 1009.0 |
| 20260506040056 | 25 | 158 | 3.2 | 8.0 | 0.00 | 0.00 | 0.00 | 86 | 1008.7 |
| 20260506034600 | 25 | 214 | 1.6 | 9.7 | 0.00 | 0.00 | 0.00 | 85 | 1008.6 |
| 20260506033052 | 25 | 161 | 3.2 | 12.9 | 0.00 | 0.00 | 0.00 | 84 | 1008.5 |
| 20260506031600 | 25 | 138 | 0.0 | 9.7 | 0.00 | 0.00 | 0.00 | 84 | 1008.2 |
| 20260506030058 | 25 | 0 | 0.0 | 6.4 | 0.00 | 0.00 | 0.00 | 83 | 1008.0 |
| 20260506024601 | 26 | 124 | 3.2 | 9.7 | 0.00 | 0.00 | 0.00 | 82 | 1007.9 |
| 20260506023052 | 26 | 133 | 3.2 | 11.3 | 0.00 | 0.00 | 0.00 | 81 | 1007.5 |
| 20260506021550 | 26 | 172 | 3.2 | 12.9 | 0.00 | 0.00 | 0.00 | 79 | 1007.2 |
| 20260506020107 | 26 | 141 | 3.2 | 8.0 | 0.00 | 0.00 | 0.00 | 78 | 1007.0 |
| 20260506014610 | 27 | 174 | 1.6 | 8.0 | 0.00 | 0.00 | 0.00 | 78 | 1006.8 |
| 20260506013052 | 27 | 103 | 3.2 | 8.0 | 0.00 | 0.00 | 0.00 | 77 | 1006.9 |
| 20260506011617 | 27 | 136 | 0.0 | 6.4 | 0.00 | 0.00 | 0.00 | 76 | 1006.9 |
| 20260506010053 | 27 | 155 | 0.0 | 3.2 | 0.00 | 0.00 | 0.00 | 75 | 1006.9 |
| 20260506004607 | 27 | 0 | 0.0 | 3.2 | 0.00 | 0.00 | 0.00 | 75 | 1006.8 |
| 20260506003055 | 28 | 118 | 0.0 | 6.4 | 0.00 | 0.00 | 0.00 | 74 | 1006.8 |
| 20260506001602 | 28 | 0 | 0.0 | 9.7 | 0.00 | 0.00 | 0.00 | 73 | 1006.7 |
| 20260506000120 | 28 | 205 | 3.2 | 8.0 | 0.00 | 0.00 | 0.00 | 72 | 1006.5 |
| 20260505234556 | 28 | 168 | 3.2 | 8.0 | 0.00 | 0.00 | 0.00 | 73 | 1006.4 |
| 20260505233059 | 28 | 184 | 3.2 | 16.1 | 0.00 | 0.00 | 0.00 | 72 | 1006.3 |
| 20260505231612 | 28 | 106 | 4.8 | 12.9 | 0.00 | 0.00 | 0.00 | 71 | 1006.2 |
| 20260505230105 | 28 | 194 | 3.2 | 11.3 | 0.00 | 0.00 | 0.00 | 71 | 1006.0 |
| 20260505224557 | 28 | 58 | 3.2 | 9.7 | 0.00 | 0.00 | 0.00 | 70 | 1006.0 |
| 20260505223049 | 28 | 215 | 4.8 | 16.1 | 0.00 | 0.00 | 0.00 | 69 | 1005.9 |
| 20260505221559 | 29 | 167 | 3.2 | 14.5 | 0.00 | 0.00 | 0.00 | 69 | 1006.0 |
| 20260505220053 | 29 | 181 | 4.8 | 17.7 | 0.00 | 0.00 | 0.00 | 69 | 1006.1 |
| 20260505214554 | 29 | 179 | 8.0 | 19.3 | 0.00 | 0.00 | 0.00 | 68 | 1006.5 |
| 20260505213056 | 28 | 167 | 6.4 | 19.3 | 0.00 | 0.00 | 0.00 | 68 | 1006.5 |
| 20260505211557 | 29 | 193 | 6.4 | 19.3 | 0.00 | 0.00 | 0.00 | 68 | 1006.5 |
| 20260505210055 | 28 | 186 | 6.4 | 19.3 | 0.00 | 0.00 | 0.00 | 70 | 1006.7 |
| 20260505204600 | 28 | 184 | 3.2 | 17.7 | 0.00 | 0.00 | 0.00 | 70 | 1007.0 |
| 20260505203059 | 28 | 181 | 4.8 | 14.5 | 0.00 | 0.00 | 0.00 | 72 | 1007.5 |
| 20260505201555 | 27 | 178 | 8.0 | 12.9 | 0.00 | 0.00 | 0.00 | 73 | 1007.6 |
| 20260505200052 | 27 | 149 | 3.2 | 12.9 | 0.00 | 0.00 | 0.00 | 73 | 1007.8 |
| 20260505194617 | 27 | 122 | 4.8 | 12.9 | 0.00 | 0.00 | 0.00 | 73 | 1008.1 |
| 20260505193052 | 27 | 52 | 4.8 | 14.5 | 0.00 | 0.00 | 0.00 | 74 | 1008.2 |
| 20260505191606 | 27 | 178 | 8.0 | 16.1 | 0.00 | 0.00 | 0.00 | 74 | 1008.2 |
| 20260505190055 | 27 | 167 | 3.2 | 14.5 | 0.00 | 0.00 | 0.00 | 75 | 1008.4 |
| 20260505184554 | 26 | 200 | 8.0 | 16.1 | 0.00 | 0.00 | 0.00 | 77 | 1008.5 |
| 20260505183056 | 26 | 204 | 4.8 | 14.5 | 0.00 | 0.00 | 0.00 | 78 | 1008.8 |
| 20260505181555 | 25 | 152 | 4.8 | 17.7 | 0.00 | 0.00 | 0.00 | 79 | 1008.9 |
| 20260505174556 | 24 | 201 | 4.8 | 16.1 | 0.00 | 0.00 | 0.00 | 81 | 1009.3 |
| 20260505173112 | 24 | 167 | 6.4 | 17.7 | 0.00 | 0.00 | 0.00 | 82 | 1009.4 |
| 20260505171618 | 23 | 221 | 6.4 | 14.5 | 0.00 | 0.00 | 0.00 | 82 | 1009.4 |
| 20260505170053 | 23 | 176 | 4.8 | 14.5 | 0.00 | 0.00 | 0.00 | 83 | 1009.5 |
| 20260505164604 | 23 | 167 | 8.0 | 19.3 | 0.00 | 0.00 | 0.00 | 84 | 1009.3 |
| 20260505163049 | 23 | 151 | 6.4 | 16.1 | 0.00 | 0.00 | 0.00 | 85 | 1009.4 |
| 20260505161556 | 22 | 181 | 4.8 | 12.9 | 0.00 | 0.00 | 0.00 | 85 | 1009.4 |
| 20260505153054 | 22 | 175 | 4.8 | 12.9 | 0.00 | 0.00 | 0.00 | 87 | 1009.7 |